{"data":{"norad_id":66620,"intl_designator":"2025-271D","name":"STARLINK-35936","alt_names":[],"object_type":"PAYLOAD","status":"ACTIVE","operator":null,"country":"US","launch_date":"2025-11-23","launch_site_code":"AFWTR","launch_vehicle":null,"mission":null,"orbit_class":"UNKNOWN","rcs_meters":null,"size_class":null,"mass_kg":null,"dimensions":null,"purposes":["comms"],"wikipedia_slug":null,"has_3d_model":false,"image_url":null,"decayed_at":null,"tle_current":{"epoch":"2026-05-24T23:37:32.439072Z","epoch_age_seconds":72537,"freshness":"FRESH","line1":"1 66620U 25271D   26144.98440323  .00011954  00000+0  41498-3 0  9995","line2":"2 66620  53.1582 145.8450 0001210  82.9283 277.1855 15.30208318 29242","mean_motion":15.30208318,"eccentricity":0.000121,"inclination_deg":53.1582,"raan_deg":145.845,"arg_perigee_deg":82.9283,"mean_anomaly_deg":277.1855,"bstar":0.00041498,"rev_number":2924,"period_min":94.104834162848,"perigee_km":474.36098088791,"apogee_km":476.01948607841,"semimajor_km":6853.3272334832,"source":"CELESTRAK","updated_at":"2026-05-25T13:38:21.294510Z"}}}